Portada
METAR-TAF:

METAR-TAF

Aeropuertos :

Cascaes, Portugal

latitud: 38-43-32N, longitud: 009-21-19W, altitud: 99 m

Observación

El informe se hizo hace 5 horas y 41 minutos, a las 20:00 UTC
Viento 6 kt del sur-suroeste
Temperatura 15°C
Humedad 94%
Presión 1014 hPa
Visibilidad 10 km o más
Nubes dispersas a una altura de 1400 ft

METAR: LPCS 222000Z 20006KT 9999 SCT014 15/14 Q1014

Hora: 02:41 (01:41 UTC)


TAF: falta

Observaciones y pronósticos meteorológicos de más de 4000 aeropuertos (mensajes METAR y TAF).

Los puntos amarillos y rojos representan las estaciones disponibles.

Ponga el ratón en el punto deseado para ver el nombre de la estación.

Haga clic para ver las observaciones y los pronósticos meteorológicos.

Para cambiar el mapa : haga clic en los botones verdes con una cruz de color negro para hacer un zoom, en el botón verde con un guión para alejar o en las flechas verdes para mapas adyacentes.


METAR-TAF: